Location: Oshawa
(43.9000°N, 78.8670°W)
Time: 10:33:06
(UTC-05:00)

S-56A Canister/Altair - All Passes

Search period start: 16 January 2018 00:00
Search period end: 26 January 2018 00:00
Orbit: 634 x 2499 km, 38.9° (Epoch: 15 January)

Date Brightness Start Highest point End Pass type
(mag) Time Alt. Az. Time Alt. Az. Time Alt. Az.
16 Jan - 09:48:40 10° SSW 09:57:27 28° SSE 10:03:54 10° E daylight
16 Jan - 11:52:46 10° WSW 12:01:40 50° SSE 12:07:39 10° E daylight
16 Jan - 13:58:25 10° W 14:05:29 53° S 14:10:29 10° ESE daylight
16 Jan - 16:04:02 10° W 16:08:32 25° SSW 16:12:18 10° SSE daylight
17 Jan - 09:15:40 10° SSW 09:24:42 27° SSE 09:31:27 10° E daylight
17 Jan - 11:19:29 10° SW 11:29:02 49° SSE 11:35:25 10° E daylight
17 Jan - 13:25:17 10° W 13:33:01 56° S 13:38:20 10° ESE daylight
17 Jan - 15:31:03 10° W 15:36:13 29° SSW 15:40:20 10° SSE daylight
18 Jan - 08:42:42 10° SSW 08:51:53 25° SSE 08:58:54 10° E daylight
18 Jan - 10:46:11 10° SW 10:56:21 48° SSE 11:03:10 10° E daylight
18 Jan - 12:52:03 10° W 13:00:31 59° S 13:06:10 10° ESE daylight
18 Jan - 14:58:00 10° W 15:03:54 34° SSW 15:08:22 10° SE daylight
19 Jan - 08:09:48 10° SSW 08:19:02 24° SSE 08:26:15 10° E daylight
19 Jan - 10:12:51 10° SW 10:23:36 47° SSE 10:30:53 10° E daylight
19 Jan - 12:18:44 10° WSW 12:27:56 60° S 12:34:00 10° ESE daylight
19 Jan - 14:24:53 10° W 14:31:32 40° SSW 14:36:21 10° SE daylight
19 Jan - 16:33:05 10° SW 16:33:57 10° SW 16:34:47 10° SSW daylight
20 Jan - 07:37:00 10° S 07:46:08 22° SE 07:53:30 10° E daylight
20 Jan - 09:39:31 10° SW 09:50:48 45° SSE 09:58:32 10° E daylight
20 Jan - 11:45:21 10° WSW 11:55:18 61° S 12:01:48 10° E daylight
20 Jan - 13:51:42 10° W 13:59:08 45° SSW 14:04:19 10° SE daylight
20 Jan - 15:58:49 10° WSW 16:01:40 14° SW 16:04:13 10° S daylight
21 Jan - 07:04:20 10° S 07:13:14 21° SE 07:20:37 10° E visible
21 Jan - 09:06:12 10° SW 09:17:55 44° SSE 09:26:08 10° E daylight
21 Jan - 11:11:55 10° WSW 11:22:37 62° S 11:29:35 10° E daylight
21 Jan - 13:18:26 10° W 13:26:40 50° SSW 13:32:14 10° ESE daylight
21 Jan - 15:25:17 10° W 15:29:24 18° SW 15:32:50 10° S daylight
22 Jan - 06:31:47 10° S 06:40:17 19° SE 06:47:33 10° ESE visible
22 Jan - 08:32:55 10° SW 08:44:59 42° SSE 08:53:40 10° E daylight
22 Jan - 10:38:27 10° WSW 10:49:50 62° S 10:57:19 10° E daylight
22 Jan - 12:45:05 10° W 12:54:08 55° SSW 13:00:08 10° ESE daylight
22 Jan - 14:51:52 10° W 14:57:06 22° SW 15:01:13 10° SSE daylight
23 Jan - 05:59:29 10° S 06:07:19 17° SE 06:14:15 10° ESE visible
23 Jan - 07:59:41 10° SW 08:12:01 40° SSE 08:21:09 10° E daylight
23 Jan - 10:04:55 10° WSW 10:17:00 61° S 10:25:01 10° E daylight
23 Jan - 12:11:40 10° W 12:21:32 59° SSW 12:27:59 10° ESE daylight
23 Jan - 14:18:29 10° W 14:24:47 27° SW 14:29:28 10° SSE daylight
24 Jan - 05:27:26 10° SSE 05:34:22 15° SE 05:40:41 10° ESE visible
24 Jan - 07:26:30 10° SSW 07:38:59 38° SSE 07:48:32 10° E daylight
24 Jan - 09:31:25 10° WSW 09:44:06 61° SSE 09:52:39 10° E daylight
24 Jan - 11:38:11 10° W 11:48:52 62° S 11:55:49 10° ESE daylight
24 Jan - 13:45:05 10° W 13:52:23 32° SSW 13:57:37 10° SSE daylight
25 Jan - 04:55:51 10° SSE 05:01:25 13° SE 05:06:39 10° ESE visible
25 Jan - 06:53:25 10° SSW 07:05:55 36° SSE 07:15:49 10° E visible
25 Jan - 08:57:55 10° WSW 09:11:06 59° SSE 09:20:15 10° E daylight
25 Jan - 11:04:39 10° W 11:16:06 65° S 11:23:35 10° ESE daylight
25 Jan - 13:11:39 10° W 13:19:57 38° SSW 13:25:42 10° SE daylight
